Palma de Mallorca, Spain

7:55 PM CET on February 27, 2017 (GMT +0100)
Palma De Mallorca

Weather History for LEPA - July, 2013

Change the Weather History Date:

Saturday, July 13, 2013

  Actual Average Record
Temperature  
Mean Temperature 78 °F -  
Max Temperature 87 °F 85 °F 96 °F (2003)
Min Temperature 70 °F 65 °F 57 °F (2000)
Cooling Degree Days 14    
Growing Degree Days 28 (Base 50)    
Moisture  
Dew Point 63 °F    
Average Humidity 58    
Maximum Humidity 83    
Minimum Humidity 28    
Precipitation  
Precipitation 0.00 in 0.02 in - ()
Sea Level Pressure  
Sea Level Pressure 30.03 in    
Wind  
Wind Speed 3 mph ()    
Max Wind Speed 16 mph    
Max Gust Speed 15 mph    
Visibility 13.0 miles    
Events      
Averages and records for this station are not official NWS values.
T = Trace of Precipitation, MM = Missing Value Source: Averaged Metar Reports

Daily Weather History Graph

Daily Weather History Graph

Search for Another Location

Airport or City:

Trip Planner

Search our weather history database for the weather conditions in past years. The results will help you decide how hot, cold, wet, or windy it might be!

Date:

Astronomy

Jul. 13, 2013 Rise Set
Actual Time 6:32 AM CEST 9:16 PM CEST
Civil Twilight 6:01 AM CEST 9:48 PM CEST
Nautical Twilight 5:21 AM CEST 10:27 PM CEST
Astronomical Twilight 4:36 AM CEST 11:12 PM CEST
Moon 11:32 AM CEST (7/13) 11:51 PM CEST (7/13)
Length of Visible Light 15h 47m
Length of Day
14h 43m
Waxing Crescent, 23% of the Moon is Illuminated
Jul 13
Waxing Crescent
Jul 16
First Quarter
Jul 22
Full
Jul 29
Last Quarter
Aug 6
New

Hourly Weather History & Observations

Time (CEST) Temp. Heat Index Dew Point Humidity Pressure Visibility Wind Dir Wind Speed Gust Speed Precip Events Conditions
12:00 AM 75.2 °F - 68.0 °F 78% 30.01 in - Variable 1.2 mph - N/A   Clear
12:30 AM 75.2 °F - 68.0 °F 78% 30.04 in - Variable 1.2 mph - N/A   Clear
1:00 AM 73.4 °F - 66.2 °F 78% 30.04 in - ENE 3.5 mph - N/A   Clear
1:30 AM 73.4 °F - 66.2 °F 78% 30.04 in - Calm Calm - N/A   Clear
2:00 AM 72 °F - 65 °F 72% 30.05 in 11 mi Calm Calm - -   Clear
2:00 AM 73.4 °F - 66.2 °F 78% 30.04 in - Calm Calm - N/A   Clear
2:30 AM 71.6 °F - 66.2 °F 83% 30.04 in - ENE 2.3 mph - N/A   Clear
3:00 AM 71.6 °F - 64.4 °F 78% 30.04 in - ENE 2.3 mph - N/A   Clear
3:30 AM 71.6 °F - 64.4 °F 78% 30.04 in - Calm Calm - N/A   Clear
4:00 AM 71.6 °F - 64.4 °F 78% 30.01 in - Calm Calm - N/A   Clear
4:30 AM 71.6 °F - 64.4 °F 78% 30.01 in - NE 1.2 mph - N/A   Clear
5:00 AM 72 °F - 64 °F 69% 30.01 in 11 mi Calm Calm - -   Clear
5:00 AM 73.4 °F - 64.4 °F 73% 30.01 in - Calm Calm - N/A   Clear
5:30 AM 73.4 °F - 66.2 °F 78% 30.01 in - NE 2.3 mph - N/A   Clear
6:00 AM 73.4 °F - 66.2 °F 78% 30.01 in - NE 3.5 mph - N/A   Clear
6:30 AM 73.4 °F - 66.2 °F 78% 30.01 in - Variable 1.2 mph - N/A   Clear
7:00 AM 75.2 °F - 64.4 °F 69% 30.01 in - Calm Calm - N/A   Clear
7:30 AM 75.2 °F - 64.4 °F 69% 30.01 in - Variable 2.3 mph - N/A   Clear
8:00 AM 75 °F - 59 °F 49% 30.01 in 17 mi WNW 6.7 mph - -   Partly Cloudy
8:00 AM 75.2 °F - 60.8 °F 61% 30.01 in 6.2 mi NE 4.6 mph - N/A   Partly Cloudy
8:30 AM 77.0 °F - 59.0 °F 54% 30.01 in 6.2 mi North 3.5 mph 15.0 mph N/A   Partly Cloudy
9:00 AM 78.8 °F - 57.2 °F 47% 30.01 in 6.2 mi NNE 5.8 mph - N/A   Partly Cloudy
9:30 AM 78.8 °F - 62.6 °F 57% 30.04 in - East 5.8 mph - N/A   Clear
10:00 AM 78.8 °F - 66.2 °F 65% 30.04 in - Variable 2.3 mph - N/A   Clear
10:30 AM 84.2 °F 85.0 °F 62.6 °F 48% 30.04 in - Variable 2.3 mph - N/A   Clear
11:00 AM 85 °F - 57 °F 28% 30.07 in 16 mi SSW 8.9 mph - -   Overcast
11:00 AM 86.0 °F 84.9 °F 57.2 °F 37% 30.06 in - Variable 2.3 mph - N/A   Clear
11:30 AM 84.2 °F 84.4 °F 60.8 °F 45% 30.06 in - South 4.6 mph - N/A   Clear
12:00 PM 84.2 °F 84.4 °F 60.8 °F 45% 30.04 in - Variable 2.3 mph - N/A   Clear
12:30 PM 84.2 °F 83.5 °F 57.2 °F 40% 30.04 in - Variable 1.2 mph - N/A   Clear
1:00 PM 82.4 °F 83.4 °F 62.6 °F 51% 30.04 in - Variable 2.3 mph - N/A   Clear
1:30 PM 84.2 °F 84.4 °F 60.8 °F 45% 30.04 in - ENE 3.5 mph - N/A   Clear
2:00 PM 84 °F - 56 °F 28% 30.05 in 17 mi East 6.9 mph - -   Mostly Cloudy
2:00 PM 84.2 °F 83.0 °F 55.4 °F 37% 30.04 in - East 5.8 mph - N/A   Clear
2:30 PM 84.2 °F 83.0 °F 55.4 °F 37% 30.04 in - Variable 2.3 mph - N/A   Clear
3:00 PM 86.0 °F 84.2 °F 53.6 °F 33% 30.04 in - ESE 8.1 mph - N/A   Clear
3:30 PM 84.2 °F 83.0 °F 55.4 °F 37% 30.04 in - ENE 4.6 mph - N/A   Clear
4:00 PM 84.2 °F 84.4 °F 60.8 °F 45% 30.04 in - NE 8.1 mph - N/A   Clear
4:30 PM 84.2 °F 83.8 °F 59.0 °F 42% 30.04 in - NE 6.9 mph - N/A   Clear
5:00 PM 85 °F - 59 °F 31% 30.02 in 17 mi NE 8.1 mph - -   Mostly Cloudy
5:00 PM 86.0 °F 85.4 °F 59.0 °F 40% 30.01 in - NE 8.1 mph - N/A   Clear
5:30 PM 86.0 °F 85.4 °F 59.0 °F 40% 30.01 in - NE 8.1 mph - N/A   Clear
6:00 PM 86.0 °F 84.9 °F 57.2 °F 37% 30.01 in - NE 6.9 mph - N/A   Clear
6:30 PM 86.0 °F 84.9 °F 57.2 °F 37% 30.01 in - NNE 4.6 mph - N/A   Clear
7:00 PM 86.0 °F 84.9 °F 57.2 °F 37% 30.01 in - NNE 3.5 mph 15.0 mph N/A   Clear
7:30 PM 87.8 °F 86.5 °F 57.2 °F 35% 30.01 in - Variable 1.2 mph - N/A   Clear
8:00 PM 85 °F - 68 °F 47% 30.01 in 19 mi SSW 15.7 mph - -   Mostly Cloudy
8:00 PM 84.2 °F 88.4 °F 69.8 °F 62% 30.01 in - SW 10.4 mph - N/A   Clear
8:30 PM 80.6 °F 83.9 °F 69.8 °F 70% 30.01 in - SW 11.5 mph - N/A   Clear
9:00 PM 80.6 °F 83.2 °F 68.0 °F 65% 30.01 in - SW 10.4 mph - N/A   Clear
9:30 PM 78.8 °F - 69.8 °F 74% 30.01 in - SSW 5.8 mph - N/A   Clear
10:00 PM 78.8 °F - 69.8 °F 74% 30.04 in - SW 3.5 mph - N/A   Clear
10:30 PM 78.8 °F - 68.0 °F 69% 30.06 in - SW 2.3 mph - N/A   Clear
11:00 PM 76 °F - 67 °F 66% 30.07 in 16 mi Calm Calm - -   Clear
11:00 PM 75.2 °F - 68.0 °F 78% 30.06 in - Calm Calm - N/A   Clear
11:30 PM 75.2 °F - 68.0 °F 78% 30.06 in - ESE 1.2 mph - N/A   Clear